This demonstration page uses our WeatherBlox Daily Observations layout. Learn more.

41.55636, -103.73856

Hourly Observations for March 9, 2019

Temp ( °F °C ) Dew Point ( °F °C ) Humidity (%) Winds ( mph kmh ) Pressure ( in mb ) Visibility ( mi km ) Precip ( " mm )
12:53 am 00:53 Cloudy with Mist and Fog 33 0.6 33 0.6 100 100 ENE 3 6 29.47 998 2.5 4.02336 0.001 0.001
1:53 am 01:53 Cloudy with Mist and Fog 33 0.6 33 0.6 100 100 N 6 9 29.47 998 3 4.828032 0 0
2:07 am 02:07 Cloudy with Mist and Fog 33 0.6 33 0.6 100 100 NNW 9 15 29.59 1002 5 8.04672 0 0
2:53 am 02:53 Cloudy 29 -1.7 28 -2.2 96 96 NNW 14 22 29.5 999 7 11.265408 0 0
3:43 am 03:43 Cloudy 29 -1.7 28 -2.2 96 96 NW 18 30 29.62 1003 9 14.484096 0 0
3:53 am 03:53 Cloudy 29 -1.7 28 -2.2 96 96 WNW 13 20 29.56 1001 9 14.484096 0 0
4:31 am 04:31 Cloudy 30 -1.1 28 -2.2 92 92 NW 23 37 29.68 1005 9 14.484096 0 0
4:50 am 04:50 Cloudy with Light Wintry Mix 28 -2 27 -3 93 93 NW 29 46 29.71 1006 2.5 4.02336 0 0
4:53 am 04:53 Cloudy with Light Wintry Mix 29 -1.7 27 -2.8 92 92 NW 24 39 29.59 1002 3 4.828032 0.001 0.001
5:38 am 05:38 Partly Cloudy 27 -3 23 -5 86 86 NW 22 35 29.74 1007 10 16.09344 0 0
5:53 am 05:53 Clear 26 -3.3 22 -5.6 84 84 NW 23 37 29.65 1004 10 16.09344 0.001 0.001
6:53 am 06:53 Sunny 24 -4.4 20 -6.7 84 84 WNW 18 30 29.71 1006 10 16.09344 0 0
7:53 am 07:53 Sunny 27 -2.8 22 -5.6 81 81 NW 24 39 29.74 1007 7 11.265408 0.001 0.001
8:04 am 08:04 Mostly Cloudy 27 -2.8 22 -5.6 81 81 NW 25 41 29.85 1011 10 16.09344 0 0
8:31 am 08:31 Mostly Cloudy with Scattered Snow Showers 27 -2.8 22 -5.6 81 81 WNW 31 50 29.85 1011 1.75 2.816352 0.001 0.001
8:53 am 08:53 Mostly Cloudy with Light Wintry Mix 28 -2.2 23 -5 81 81 WNW 33 54 29.77 1008 1.75 2.816352 0.001 0.001
9:10 am 09:10 Partly Cloudy with Light Wintry Mix 28 -2 23 -5 80 80 WNW 31 50 29.83 1010 2 3.218688 0 0
9:17 am 09:17 Partly Cloudy with Light Wintry Mix 28 -2.2 23 -5 81 81 WNW 31 50 29.88 1012 1.75 2.816352 0.001 0.001
9:28 am 09:28 Mostly Cloudy with Light Wintry Mix 28 -2 23 -5 80 80 NW 29 46 29.85 1011 1.5 2.414016 0 0
9:31 am 09:31 Partly Cloudy with Light Wintry Mix 28 -2.2 23 -5 81 81 WNW 31 50 29.88 1012 2 3.218688 0.001 0.001
9:45 am 09:45 Partly Cloudy with Light Wintry Mix 29 -1.7 24 -4.4 82 82 WNW 26 43 29.85 1011 4 6.437376 0.001 0.001
9:53 am 09:53 Sunny with Light Wintry Mix 29 -1.7 24 -4.4 82 82 WNW 33 54 29.8 1009 2.5 4.02336 0.001 0.001
10:13 am 10:13 Sunny with Light Wintry Mix 29 -1.7 23 -5 78 78 NW 28 44 29.88 1012 3 4.828032 0.001 0.001
10:53 am 10:53 Partly Cloudy 31 -0.6 24 -4.4 76 76 WNW 25 41 29.83 1010 10 16.09344 0.001 0.001
11:53 am 11:53 Sunny 31 -0.6 24 -4.4 76 76 NW 26 43 29.85 1011 10 16.09344 0.001 0.001
12:53 pm 12:53 Sunny 32 0 25 -3.9 75 75 NW 24 39 29.85 1011 10 16.09344 0 0
1:53 pm 13:53 Sunny 33 0.6 25 -3.9 72 72 NW 21 33 29.85 1011 10 16.09344 0 0
2:53 pm 14:53 Mostly Sunny 34 1.1 25 -3.9 70 70 NW 16 26 29.88 1012 10 16.09344 0 0
3:53 pm 15:53 Sunny 34 1.1 24 -4.4 67 67 NNW 13 20 29.91 1013 10 16.09344 0 0
4:53 pm 16:53 Sunny 31 -0.6 24 -4.4 76 76 N 9 15 29.91 1013 10 16.09344 0 0
5:53 pm 17:53 Sunny 25 -3.9 20 -6.7 81 81 NNW 8 13 29.97 1015 10 16.09344 0 0
6:53 pm 18:53 Clear 22 -5.6 18 -7.8 85 85 NNE 6 9 30 1016 10 16.09344 0 0
7:53 pm 19:53 Clear 21 -6.1 18 -7.8 88 88 SSE 5 7 30.03 1017 10 16.09344 0 0
8:53 pm 20:53 Clear 19 -7.2 17 -8.3 92 92 VRB 3 6 30.06 1018 10 16.09344 0 0
9:53 pm 21:53 Clear 18 -7.8 16 -8.9 92 92 N 6 9 30.06 1018 10 16.09344 0 0
10:53 pm 22:53 Clear 12 -11.1 11 -11.7 95 95 Calm 30.12 1020 10 16.09344 0 0
11:53 pm 23:53 Clear 10 -12.2 9 -12.8 95 95 N 12 19 30.12 1020 10 16.09344 0 0

Powered by AerisWeather